DW5868 Weather Reports


time (UTC)temp
C
wind
direction
speed
KPH
gust
KPH
rain 1hr
cm
rain 24hr
cm
rain mn
cm
humidity
%
barometer
mb
20260508131506 -17 0.0 0.0 0.00 0.00 0.00 1009.6
20260508130002 -17 0.0 0.0 0.00 0.00 0.00 1009.8
20260508124558 -17 0.0 0.0 0.00 0.00 0.00 1010.1
20260508123102 -17 0.0 0.0 0.00 0.00 0.00 1010.5
20260508121558 9 259 8.0 17.7 0.00 0.00 0.00 30 1010.6
20260508120053 9 275 6.4 20.9 0.00 0.00 0.00 32 1010.6
20260508114548 9 293 8.0 19.3 0.00 0.00 0.00 36 1010.8
20260508113056 9 265 8.0 17.7 0.00 0.00 0.00 33 1010.9
20260508111554 8 272 8.0 17.7 0.00 0.00 0.00 35 1011.0
20260508110045 8 279 6.4 16.1 0.00 0.00 0.00 37 1011.1
20260508104543 9 277 9.7 24.1 0.00 0.00 0.00 38 1011.3
20260508103043 9 269 11.3 24.1 0.00 0.00 0.00 39 1011.4
20260508101546 9 275 8.0 20.9 0.00 0.00 0.00 34 1011.6
20260508100039 9 238 9.7 24.1 0.00 0.00 0.00 30 1011.7
20260508094537 9 293 11.3 20.9 0.00 0.00 0.00 28 1011.7
20260508093035 10 287 9.7 20.9 0.00 0.00 0.00 32 1011.8
20260508091556 10 276 11.3 24.1 0.00 0.00 0.00 30 1011.8
20260508090030 10 287 12.9 29.0 0.00 0.00 0.00 38 1011.9
20260508084528 10 271 11.3 20.9 0.00 0.00 0.00 27 1011.9
20260508083032 10 239 6.4 20.9 0.00 0.00 0.00 25 1012.1
20260508081523 10 269 11.3 29.0 0.00 0.00 0.00 28 1012.3
20260508080020 10 267 6.4 20.9 0.00 0.00 0.00 28 1012.3
20260508074519 10 261 9.7 22.5 0.00 0.00 0.00 32 1012.5
20260508073054 11 303 6.4 20.9 0.00 0.00 0.00 23 1012.5
20260508071555 11 211 8.0 25.7 0.00 0.00 0.00 31 1012.5
20260508070058 10 236 8.0 17.7 0.00 0.00 0.00 42 1012.3
20260508064514 11 236 9.7 24.1 0.00 0.00 0.00 50 1012.4
20260508063007 11 278 6.4 22.5 0.00 0.00 0.00 51 1012.4
20260508061507 11 271 6.4 19.3 0.00 0.00 0.00 50 1012.4
20260508054507 11 267 9.7 27.4 0.00 0.00 0.00 54 1012.8
20260508053007 11 284 8.0 20.9 0.00 0.00 0.00 55 1012.7
20260508051506 11 229 6.4 27.4 0.00 0.00 0.00 57 1012.8
20260508044508 11 319 6.4 20.9 0.00 0.00 0.00 62 1012.9
20260508043007 11 287 8.0 17.7 0.00 0.00 0.00 59 1012.8
20260508041511 11 240 6.4 17.7 0.00 0.00 0.00 58 1012.9
20260508034504 12 289 4.8 24.1 0.00 0.00 0.00 58 1012.4
20260508033013 12 80 8.0 25.7 0.00 0.00 0.00 58 1012.2
20260508031504 12 269 8.0 17.7 0.00 0.00 0.00 59 1012.0
20260508024508 12 325 8.0 22.5 0.00 0.00 0.00 58 1011.8
20260508023002 13 227 9.7 24.1 0.00 0.00 0.00 58 1011.9
20260508021501 13 230 6.4 20.9 0.00 0.00 0.00 56 1011.7
20260508014503 15 255 6.4 19.3 0.00 0.00 0.00 50 1011.6
20260508013100 16 261 8.0 19.3 0.00 0.00 0.00 47 1011.7
20260508011559 16 244 6.4 20.9 0.00 0.00 0.00 48 1011.7
20260508010157 16 199 3.2 19.3 0.00 0.00 0.00 47 1011.8
20260508004558 16 244 9.7 22.5 0.00 0.00 0.00 44 1011.9
20260508003104 16 227 6.4 24.1 0.00 0.00 0.00 43 1012.0
20260508001600 16 87 9.7 27.4 0.00 0.00 0.00 42 1012.0
20260508000155 17 210 8.0 22.5 0.00 0.00 0.00 40 1012.1
20260507234554 17 202 9.7 19.3 0.00 0.00 0.00 37 1012.1
20260507233054 18 318 8.0 19.3 0.00 0.00 0.00 37 1012.1
20260507231553 17 245 6.4 24.1 0.00 0.00 0.00 37 1012.2
20260507230154 17 252 6.4 35.4 0.00 0.00 0.00 37 1012.4
20260507224552 18 300 4.8 24.1 0.00 0.00 0.00 36 1012.3
20260507223138 18 194 8.0 32.2 0.00 0.00 0.00 35 1012.7
20260507221548 18 171 4.8 29.0 0.00 0.00 0.00 33 1012.9
20260507220148 18 308 8.0 25.7 0.00 0.00 0.00 30 1013.2
20260507214554 18 270 8.0 25.7 0.00 0.00 0.00 31 1013.4
20260507213046 18 114 9.7 30.6 0.00 0.00 0.00 30 1013.7
20260507211547 18 252 3.2 33.8 0.00 0.00 0.00 31 1013.8
20260507210142 18 171 3.2 20.9 0.00 0.00 0.00 31 1013.9
20260507204543 17 249 8.0 20.9 0.00 0.00 0.00 30 1014.1
20260507203042 18 232 11.3 30.6 0.00 0.00 0.00 27 1014.4
20260507201541 18 218 6.4 24.1 0.00 0.00 0.00 27 1014.4
20260507200137 17 219 9.7 29.0 0.00 0.00 0.00 26 1014.5
20260507194538 18 267 11.3 32.2 0.00 0.00 0.00 23 1014.5
20260507193044 18 107 1.6 19.3 0.00 0.00 0.00 24 1014.6
20260507191536 18 219 8.0 16.1 0.00 0.00 0.00 22 1014.8
20260507190137 17 202 4.8 19.3 0.00 0.00 0.00 21 1014.9
20260507184534 17 268 6.4 38.6 0.00 0.00 0.00 19 1015.1
20260507183039 17 246 9.7 22.5 0.00 0.00 0.00 18 1015.1
20260507181535 18 206 1.6 12.9 0.00 0.00 0.00 18 1015.1
20260507180131 18 298 3.2 11.3 0.00 0.00 0.00 20 1015.2
20260507174532 17 260 3.2 22.5 0.00 0.00 0.00 23 1015.3
20260507173028 17 263 4.8 14.5 0.00 0.00 0.00 24 1015.2
20260507171524 16 200 3.2 20.9 0.00 0.00 0.00 25 1015.3
20260507170124 16 180 4.8 25.7 0.00 0.00 0.00 24 1015.4
20260507164525 15 203 8.0 24.1 0.00 0.00 0.00 22 1015.4
20260507163026 16 172 6.4 32.2 0.00 0.00 0.00 21 1015.5
20260507161528 15 263 6.4 17.7 0.00 0.00 0.00 22 1015.5
20260507160120 14 128 1.6 6.4 0.00 0.00 0.00 27 1015.5
20260507154516 14 22 0.0 4.8 0.00 0.00 0.00 29 1015.6
20260507153013 13 71 0.0 6.4 0.00 0.00 0.00 30 1015.7
20260507151512 13 103 0.0 1.6 0.00 0.00 0.00 33 1015.7
20260507150110 12 58 0.0 0.0 0.00 0.00 0.00 31 1015.8
20260507144515 12 57 0.0 0.0 0.00 0.00 0.00 33 1015.8
20260507143009 11 225 0.0 0.0 0.00 0.00 0.00 45 1015.7
20260507141505 9 279 0.0 0.0 0.00 0.00 0.00 42 1015.5
20260507134600 5 279 0.0 0.0 0.00 0.00 0.00 46 1015.1
20260507133053 -17 0.0 0.0 0.00 0.00 0.00 1014.7